Location: Arboyeti
(42.1122°N, 44.6017°E)
Time: 04:04:40
(UTC+00:00)

Helios 1A Rocket - Pass Details

Date: 19 April 2021
Orbit: 563 x 584 km, 98.3° (Epoch: 09 May)

Event Time Altitude Azimuth Distance (km) Brightness Sun altitude
Rises 16:52:51 0° 185° (S) 2,760 6.2 -12.1°
Reaches altitude 10° 16:55:06 10° 194° (SSW) 1,871 5.4 -12.4°
Maximum altitude 16:58:52 36° 262° (W) 916 4.4 -13.1°
Drops below altitude 10° 17:02:40 10° 330° (NNW) 1,897 6.5 -13.7°
Sets 17:04:58 0° 339° (NNW) 2,804 7.3 -14.0°
